Flag for Turkey Weather past 2 weeks in Mersin, Turkey

Now
54 °F

Passing clouds.


Feels Like: 53 °F
Forecast: 52 / 74 °F
Wind: 5 mph from North

Location: Adana / Sakirpasa

Current Time: Apr 26, 2015 at 4:55:37 AM

Latest Report: Apr 26, 2015 at 4:20 AM


Visibility: N/A

Pressure: 30.07 "Hg

Humidity: 77%

Dew point: 46 °F

Location of MersinLocation

Historic Weather in Mersin — Graph

°F

Mersin temperature yesterday

Maximum temperature yesterday: 73 °F (at 1:50 PM)
Minimum temperature yesterday: 48 °F (at 1:20 AM)
Average temperature yesterday: 61 °F

Past Weeks' High & Low Weather Summary

 TemperatureHumidityPressure
High79 °F (Apr 16, 1:20 PM)88% (Apr 17, 5:20 AM)30.24 "Hg (Apr 17, 5:20 AM)
Low43 °F (Apr 13, 4:20 AM)15% (Apr 15, 1:50 PM)29.65 "Hg (Apr 21, 3:50 PM)
Average61 °F55%29.98 "Hg
* Reported Apr 11 3:20 AM — Apr 26 3:20 AM, Mersin, Weather by CustomWeather, © 2015

Note: Actual official high and low records may vary slightly from our data, if they occured in-between our weather recording intervals... More about our weather records

Advertising

Mersin weather history for previous 24 hours

 ConditionsComfort  
Time TempWeatherWind HumidityBarometerVisibility
3:20 AM
Sun, Apr 26
50 °FPassing clouds.3 mph82%30.09 "HgN/A
2:50 AM54 °FPassing clouds.2 mph72%30.09 "HgN/A
2:20 AM55 °FPassing clouds.5 mph72%30.09 "HgN/A
1:50 AM54 °FPassing clouds.2 mph77%30.09 "HgN/A
1:20 AM54 °FPassing clouds.No wind77%30.09 "HgN/A
12:50 AM54 °FPassing clouds.No wind72%30.12 "HgN/A
11:50 PM
Sat, Apr 25
55 °FPassing clouds.1 mph72%30.12 "HgN/A
11:20 PM55 °FPassing clouds.1 mph72%30.12 "HgN/A
10:50 PM57 °FPassing clouds.2 mph63%30.12 "HgN/A
10:20 PM59 °FPassing clouds.1 mph63%30.12 "HgN/A
9:50 PM63 °FPassing clouds.2 mph52%30.12 "HgN/A
9:20 PM63 °FClear.3 mph56%30.15 "Hg10 mi
8:50 PM61 °FPassing clouds.3 mph55%30.12 "HgN/A
8:20 PM63 °FSunny.7 mph52%30.12 "Hg10 mi
7:50 PM64 °FPassing clouds.6 mph49%30.12 "HgN/A
7:20 PM64 °FSunny.7 mph43%30.12 "Hg10 mi
6:50 PM64 °FSunny.7 mph43%30.12 "Hg10 mi
6:20 PM66 °FSunny.8 mph37%30.12 "Hg10 mi
5:50 PM68 °FSunny.12 mph38%30.12 "Hg10 mi
5:20 PM70 °FSunny.12 mph35%30.12 "Hg10 mi
4:50 PM72 °FPassing clouds.9 mph36%30.12 "HgN/A
4:20 PM72 °FPassing clouds.9 mph36%30.12 "HgN/A
3:50 PM73 °FPassing clouds.8 mph33%30.12 "HgN/A
3:20 PM73 °FPassing clouds.9 mph38%30.12 "HgN/A
2:50 PM73 °FSunny.5 mph25%30.15 "Hg10 mi
2:20 PM72 °FSunny.7 mph27%30.15 "Hg10 mi
1:50 PM73 °FSunny.5 mph25%30.18 "Hg10 mi
1:20 PM72 °FSunny.6 mph29%30.18 "Hg10 mi
12:50 PM72 °FSunny.6 mph29%30.18 "Hg10 mi
12:20 PM70 °FPassing clouds.7 mph31%30.21 "HgN/A
11:50 AM70 °FSunny.3 mph33%30.21 "Hg10 mi
11:20 AM68 °FSunny.5 mph38%30.21 "Hg10 mi
10:50 AM66 °FPassing clouds.5 mph43%30.21 "HgN/A
10:20 AM64 °FSunny.3 mph49%30.24 "Hg10 mi
9:50 AM64 °FSunny.3 mph49%30.24 "Hg10 mi
9:20 AM63 °FPassing clouds.5 mph52%30.24 "HgN/A
8:50 AM61 °FPassing clouds.6 mph55%30.24 "HgN/A
8:20 AM59 °FSunny.7 mph59%30.24 "Hg10 mi
7:50 AM57 °FSunny.7 mph63%30.24 "Hg10 mi
7:20 AM55 °FSunny.6 mph72%30.24 "Hg10 mi
6:50 AM54 °FClear.7 mph77%30.21 "Hg10 mi
6:20 AM50 °FClear.6 mph82%30.21 "Hg10 mi
5:50 AM50 °FClear.5 mph82%30.21 "Hg10 mi
5:20 AM50 °FClear.7 mph82%30.21 "Hg10 mi
4:50 AM48 °FClear.6 mph82%30.21 "Hg10 mi
4:20 AM50 °FClear.5 mph76%30.21 "Hg10 mi
Weather by CustomWeather, © 2015

See weather overviewHow to use our weather pages